This is the latest recevied weather packets stored in our database for station/object KD9DOE. If no packets are shown the sender has not sent any weather packets the latest 10 day(s).
| Time | Temp. | Humidity | Pressure | Rain* | Wind** | Luminosity | Snow |
|---|---|---|---|---|---|---|---|
| 1777897328 | 12.22° C | 50% | 1001.4 hPa | 0 mm | - | 104 W/m² | - |
| 1777897024 | 12.22° C | 51% | 1001.5 hPa | 0 mm | - | 91 W/m² | - |
| 1777896722 | 12.22° C | 51% | 1001.5 hPa | 0 mm | - | 34 W/m² | - |
| 1777896419 | 11.67° C | 52% | 1001.7 hPa | 0 mm | - | 32 W/m² | - |
| 1777896116 | 11.67° C | 53% | 1001.7 hPa | 0 mm | - | 31 W/m² | - |
| 1777895814 | 11.11° C | 53% | 1001.6 hPa | 0 mm | - | 29 W/m² | - |
| 1777895511 | 11.11° C | 54% | 1001.5 hPa | 0 mm | - | 27 W/m² | - |
| 1777895209 | 10.56° C | 55% | 1001.6 hPa | 0 mm | - | 26 W/m² | - |
| 1777894906 | 10.56° C | 56% | 1001.5 hPa | 0 mm | - | 24 W/m² | - |
| 1777894603 | 10° C | 57% | 1001.2 hPa | 0 mm | - | 22 W/m² | - |
| 1777894300 | 10° C | 59% | 1001.4 hPa | 0 mm | - | 20 W/m² | - |
| 1777893998 | 10° C | 59% | 1001.4 hPa | 0 mm | - | 18 W/m² | - |
| 1777893694 | 9.44° C | 60% | 1001.6 hPa | 0 mm | - | 16 W/m² | - |
| 1777893390 | 9.44° C | 62% | 1001.5 hPa | 0 mm | - | 13 W/m² | - |
| 1777893086 | 9.44° C | 61% | 1001.4 hPa | 0 mm | - | 11 W/m² | - |
| 1777892784 | 9.44° C | 61% | 1001.3 hPa | 0 mm | - | 9 W/m² | - |
| 1777892480 | 9.44° C | 61% | 1001.5 hPa | 0 mm | - | 6 W/m² | - |
| 1777892175 | 9.44° C | 60% | 1001.5 hPa | 0 mm | - | 4 W/m² | - |
| 1777891872 | 9.44° C | 60% | 1001.5 hPa | 0 mm | - | 3 W/m² | - |
| 1777891570 | 9.44° C | 60% | 1001.8 hPa | 0 mm | - | 2 W/m² | - |
| 1777891266 | 9.44° C | 60% | 1001.7 hPa | 0 mm | - | 1 W/m² | - |
| 1777890966 | 9.44° C | 60% | 1001.5 hPa | 0 mm | - | 0 W/m² | - |
| 1777890660 | 9.44° C | 60% | 1001.6 hPa | 0 mm | - | 0 W/m² | - |
| 1777890356 | 10° C | 60% | 1001.7 hPa | 0 mm | - | 0 W/m² | - |
| 1777890053 | 9.44° C | 59% | 1001.6 hPa | 0 mm | - | 0 W/m² | - |
* Rain latest hour (hover to see other rain measurements)
** Current wind speed in m/s (hover to see current wind gust speed)